RYR36C LEMI-EGHH

Flight info

Callsign RYR36C
Flight time 2h 1m
Altitude 38000
Route ALT N851 MITOS N608 COMPI Y90 USKAR DCT MOPAS DCT GIROM DCT AGN DCT SECHE DCT UVELI DCT CNA DCT MANAK UY110 ORIST Y110 THRED
Aircraft B38M/M-SADE3FGILRWY/SB1

Departure

Time 2026-05-04 12:58
Airport Region of Murcia International Airport (LEMI)

Arrival

Time 2026-05-04 15:00
Airport Bournemouth Airport (EGHH)
Time Latitude Longitude Altitude Speed Heading
2026-05-04 12:18 37.80351 -1.13126 643 ft 0 kts 316°
2026-05-04 12:47 37.80348 -1.13121 643 ft 2 kts 315°
2026-05-04 12:47 37.80336 -1.13107 644 ft 2 kts 317°
2026-05-04 12:48 37.80324 -1.13093 646 ft 2 kts 319°
2026-05-04 12:48 37.80311 -1.13080 644 ft 2 kts 326°
2026-05-04 12:48 37.80296 -1.13072 643 ft 2 kts
2026-05-04 12:48 37.80286 -1.13078 643 ft 1 kts 44°
2026-05-04 12:49 37.80285 -1.13079 643 ft 0 kts 45°
2026-05-04 12:51 37.80292 -1.13070 643 ft 3 kts 45°
2026-05-04 12:51 37.80314 -1.13042 643 ft 8 kts 45°
2026-05-04 12:52 37.80375 -1.12965 643 ft 14 kts 45°
2026-05-04 12:52 37.80450 -1.12868 643 ft 16 kts 49°
2026-05-04 12:52 37.80460 -1.12797 643 ft 4 kts 131°
2026-05-04 12:52 37.80437 -1.12764 643 ft 6 kts 131°
2026-05-04 12:53 37.80406 -1.12715 643 ft 8 kts 115°
2026-05-04 12:53 37.80407 -1.12672 643 ft 4 kts 63°
2026-05-04 12:53 37.80433 -1.12636 643 ft 8 kts 47°
2026-05-04 12:53 37.80494 -1.12556 643 ft 16 kts 45°
2026-05-04 12:54 37.80581 -1.12447 643 ft 19 kts 45°
2026-05-04 12:54 37.80667 -1.12337 643 ft 15 kts 45°
2026-05-04 12:54 37.80744 -1.12238 643 ft 17 kts 45°
2026-05-04 12:54 37.80830 -1.12126 643 ft 19 kts 46°
2026-05-04 12:55 37.80923 -1.12001 643 ft 20 kts 47°
2026-05-04 12:55 37.81026 -1.11868 643 ft 20 kts 45°
2026-05-04 12:55 37.81113 -1.11757 643 ft 19 kts 45°
2026-05-04 12:55 37.81208 -1.11637 643 ft 20 kts 44°
2026-05-04 12:56 37.81286 -1.11540 643 ft 14 kts 45°
2026-05-04 12:56 37.81345 -1.11463 643 ft 6 kts 53°
2026-05-04 12:56 37.81347 -1.11438 643 ft 4 kts 106°
2026-05-04 12:56 37.81332 -1.11388 646 ft 9 kts 122°
2026-05-04 12:57 37.81283 -1.11321 643 ft 12 kts 133°
2026-05-04 12:57 37.81236 -1.11293 642 ft 5 kts 200°
2026-05-04 12:57 37.81211 -1.11329 642 ft 6 kts 231°
2026-05-04 12:57 37.81178 -1.11369 643 ft 8 kts 224°
2026-05-04 12:58 37.81048 -1.11533 642 ft 59 kts 225°
2026-05-04 12:58 37.80592 -1.12120 642 ft 125 kts 226°
2026-05-04 12:58 37.79811 -1.12998 744 ft 169 kts 219°
2026-05-04 12:58 37.78952 -1.14133 1311 ft 186 kts 233°
2026-05-04 12:59 37.78207 -1.15510 2133 ft 189 kts 227°
2026-05-04 12:59 37.77133 -1.16529 2743 ft 208 kts 208°
2026-05-04 12:59 37.75810 -1.17508 3274 ft 231 kts 211°
2026-05-04 12:59 37.74415 -1.18616 4087 ft 241 kts 213°
2026-05-04 13:00 37.73010 -1.19801 5064 ft 245 kts 219°
2026-05-04 13:00 37.71701 -1.21221 5973 ft 250 kts 224°
2026-05-04 13:00 37.70392 -1.22695 6894 ft 255 kts 223°
2026-05-04 13:00 37.69067 -1.24183 7869 ft 256 kts 224°
2026-05-04 13:01 37.67725 -1.25686 8383 ft 258 kts 224°
2026-05-04 13:01 37.66446 -1.27255 8421 ft 255 kts 236°
2026-05-04 13:01 37.65842 -1.29291 8422 ft 250 kts 265°
2026-05-04 13:01 37.66091 -1.31435 8453 ft 256 kts 290°
2026-05-04 13:02 37.67145 -1.33292 8603 ft 267 kts 317°
2026-05-04 13:02 37.68825 -1.34235 8466 ft 276 kts 348°
2026-05-04 13:02 37.70738 -1.33938 8435 ft 286 kts 20°
2026-05-04 13:02 37.72301 -1.32394 8453 ft 291 kts 54°
2026-05-04 13:03 37.73161 -1.30074 8468 ft 295 kts 67°
2026-05-04 13:03 37.74024 -1.27725 8455 ft 295 kts 63°
2026-05-04 13:03 37.74930 -1.25394 8471 ft 296 kts 63°
2026-05-04 13:03 37.75856 -1.23034 8466 ft 296 kts 63°
2026-05-04 13:04 37.76752 -1.20762 8473 ft 296 kts 62°
2026-05-04 13:04 37.77673 -1.18433 8466 ft 296 kts 63°
2026-05-04 13:04 37.78659 -1.16127 8543 ft 304 kts 51°
2026-05-04 13:04 37.80269 -1.14499 9429 ft 296 kts 24°
2026-05-04 13:05 37.82132 -1.13260 10086 ft 310 kts 26°
2026-05-04 13:05 37.84063 -1.11857 10539 ft 329 kts 27°
2026-05-04 13:05 37.86097 -1.10381 11070 ft 344 kts 27°
2026-05-04 13:05 37.88196 -1.08865 11749 ft 352 kts 26°
2026-05-04 13:06 37.90334 -1.07325 12519 ft 357 kts 26°
2026-05-04 13:06 37.92509 -1.05759 13301 ft 363 kts 26°
2026-05-04 13:06 37.94720 -1.04168 13996 ft 369 kts 26°
2026-05-04 13:06 37.96967 -1.02548 14738 ft 374 kts 26°
2026-05-04 13:07 37.99247 -1.00906 15443 ft 379 kts 26°
2026-05-04 13:07 38.01618 -0.99428 16127 ft 382 kts 20°
2026-05-04 13:07 38.04036 -0.98022 16817 ft 387 kts 20°
2026-05-04 13:07 38.06488 -0.96573 17510 ft 391 kts 20°
2026-05-04 13:08 38.08969 -0.95092 18184 ft 396 kts 20°
2026-05-04 13:08 38.11473 -0.93590 18759 ft 401 kts 20°
2026-05-04 13:08 38.14010 -0.92065 19342 ft 405 kts 20°
2026-05-04 13:08 38.16569 -0.90524 19901 ft 409 kts 20°
2026-05-04 13:09 38.19156 -0.88966 20473 ft 413 kts 21°
2026-05-04 13:09 38.21766 -0.87392 21013 ft 418 kts 20°
2026-05-04 13:09 38.24410 -0.85797 21541 ft 422 kts 20°
2026-05-04 13:09 38.27063 -0.84194 22063 ft 426 kts 21°
2026-05-04 13:10 38.29758 -0.82565 22565 ft 430 kts 20°
2026-05-04 13:10 38.32475 -0.80923 23084 ft 434 kts 20°
2026-05-04 13:10 38.35213 -0.79265 23560 ft 438 kts 20°
2026-05-04 13:10 38.37980 -0.77588 23986 ft 442 kts 20°
2026-05-04 13:11 38.40762 -0.75901 24403 ft 445 kts 21°
2026-05-04 13:11 38.43567 -0.74199 24847 ft 447 kts 21°
2026-05-04 13:11 38.46383 -0.72487 25301 ft 450 kts 21°
2026-05-04 13:11 38.49207 -0.70771 25691 ft 454 kts 21°
2026-05-04 13:12 38.52068 -0.69028 26124 ft 456 kts 20°
2026-05-04 13:12 38.54936 -0.67282 26548 ft 459 kts 21°
2026-05-04 13:12 38.57827 -0.65521 26945 ft 461 kts 21°
2026-05-04 13:12 38.60731 -0.63749 27331 ft 464 kts 21°
2026-05-04 13:13 38.63655 -0.61963 27728 ft 467 kts 20°
2026-05-04 13:13 38.66594 -0.60165 28146 ft 470 kts 21°
2026-05-04 13:13 38.69555 -0.58353 28546 ft 473 kts 21°
2026-05-04 13:13 38.72521 -0.56537 28968 ft 476 kts 21°
2026-05-04 13:14 38.75517 -0.54701 29337 ft 479 kts 21°
2026-05-04 13:14 38.78529 -0.52854 29719 ft 481 kts 21°
2026-05-04 13:14 38.81553 -0.50997 30071 ft 484 kts 21°
2026-05-04 13:14 38.84597 -0.49126 30357 ft 486 kts 21°
2026-05-04 13:15 38.87657 -0.47242 30640 ft 489 kts 21°
2026-05-04 13:15 38.90730 -0.45349 30965 ft 491 kts 21°
2026-05-04 13:15 38.93816 -0.43447 31247 ft 493 kts 21°
2026-05-04 13:15 38.96918 -0.41533 31521 ft 496 kts 21°
2026-05-04 13:16 38.99994 -0.39633 31787 ft 498 kts 21°
2026-05-04 13:16 39.03126 -0.37697 32050 ft 500 kts 21°
2026-05-04 13:16 39.06267 -0.35752 32283 ft 503 kts 21°
2026-05-04 13:16 39.09422 -0.33798 32544 ft 504 kts 21°
2026-05-04 13:17 39.12590 -0.31834 32803 ft 507 kts 21°
2026-05-04 13:17 39.15758 -0.29867 33063 ft 509 kts 22°
2026-05-04 13:17 39.18951 -0.27882 33319 ft 511 kts 22°
2026-05-04 13:17 39.22163 -0.25884 33575 ft 513 kts 22°
2026-05-04 13:18 39.25379 -0.23882 33890 ft 514 kts 22°
2026-05-04 13:18 39.28595 -0.21877 34196 ft 513 kts 22°
2026-05-04 13:18 39.31816 -0.19868 34507 ft 513 kts 22°
2026-05-04 13:18 39.35025 -0.17864 34817 ft 512 kts 22°
2026-05-04 13:19 39.38231 -0.15859 35196 ft 511 kts 22°
2026-05-04 13:19 39.40345 -0.14536 35427 ft 509 kts 22°
2026-05-04 13:19 39.44609 -0.11865 35808 ft 509 kts 22°
2026-05-04 13:19 39.47791 -0.09870 36082 ft 508 kts 22°
2026-05-04 13:20 39.50971 -0.07873 36345 ft 508 kts 22°
2026-05-04 13:20 39.54157 -0.05871 36607 ft 508 kts 22°
2026-05-04 13:20 39.57330 -0.03875 36857 ft 508 kts 21°
2026-05-04 13:20 39.60508 -0.01874 37146 ft 506 kts 22°
2026-05-04 13:21 39.63660 0.00112 37405 ft 506 kts 21°
2026-05-04 13:21 39.66826 0.02110 37561 ft 507 kts 21°
2026-05-04 13:21 39.68930 0.03439 37686 ft 507 kts 21°
2026-05-04 13:21 39.72103 0.05445 37900 ft 507 kts 21°
2026-05-04 13:22 39.75281 0.07456 37965 ft 508 kts 21°
2026-05-04 13:22 39.81616 0.11471 37961 ft 505 kts 22°
2026-05-04 13:23 39.87919 0.15473 37930 ft 505 kts 22°
2026-05-04 13:23 39.94241 0.19496 37933 ft 505 kts 22°
2026-05-04 13:24 40.00570 0.23475 37926 ft 503 kts 16°
2026-05-04 13:24 40.07199 0.26038 37892 ft 499 kts 11°
2026-05-04 13:25 40.17191 0.29810 37955 ft 499 kts 11°
2026-05-04 13:25 40.23854 0.32322 37948 ft 498 kts 11°
2026-05-04 13:26 40.30505 0.34836 37950 ft 498 kts 11°
2026-05-04 13:26 40.37161 0.37362 37944 ft 498 kts 11°
2026-05-04 13:27 40.43826 0.39896 37923 ft 499 kts 11°
2026-05-04 13:27 40.50503 0.42441 37943 ft 499 kts 11°
2026-05-04 13:28 40.57152 0.44980 37927 ft 499 kts 11°
2026-05-04 13:28 40.63821 0.47532 37933 ft 499 kts 11°
2026-05-04 13:29 40.70488 0.50088 37923 ft 499 kts 11°
2026-05-04 13:29 40.77154 0.52649 37926 ft 499 kts 11°
2026-05-04 13:30 40.83825 0.55218 37926 ft 499 kts 11°
2026-05-04 13:30 40.90488 0.57788 37928 ft 499 kts 11°
2026-05-04 13:31 40.97109 0.60348 37916 ft 498 kts 11°
2026-05-04 13:31 41.03748 0.62921 37934 ft 499 kts 11°
2026-05-04 13:32 41.10452 0.65524 37923 ft 498 kts 11°
2026-05-04 13:32 41.17068 0.68098 37925 ft 499 kts 12°
2026-05-04 13:33 41.23715 0.70688 37904 ft 498 kts 12°
2026-05-04 13:33 41.30359 0.73285 37916 ft 499 kts 12°
2026-05-04 13:34 41.37009 0.75888 37930 ft 498 kts 12°
2026-05-04 13:34 41.43656 0.78496 37927 ft 499 kts 12°
2026-05-04 13:35 41.53640 0.82423 37921 ft 499 kts 12°
2026-05-04 13:36 41.60305 0.85052 37921 ft 499 kts 12°
2026-05-04 13:36 41.66950 0.87678 37922 ft 498 kts 12°
2026-05-04 13:37 41.73572 0.90301 37924 ft 498 kts 12°
2026-05-04 13:37 41.76919 0.91283 37892 ft 488 kts 356°
2026-05-04 13:37 41.80209 0.90910 37909 ft 465 kts 336°
2026-05-04 13:38 41.86299 0.88137 37931 ft 466 kts 335°
2026-05-04 13:38 41.92510 0.85540 37906 ft 468 kts 335°
2026-05-04 13:39 41.98730 0.82941 37945 ft 469 kts 335°
2026-05-04 13:39 42.04943 0.80338 37933 ft 467 kts 335°
2026-05-04 13:40 42.11167 0.77728 37871 ft 467 kts 335°
2026-05-04 13:40 42.17376 0.75117 37941 ft 470 kts 335°
2026-05-04 13:41 42.23587 0.72501 37934 ft 468 kts 336°
2026-05-04 13:41 42.29762 0.69893 37943 ft 468 kts 336°
2026-05-04 13:42 42.39089 0.65946 37935 ft 468 kts 336°
2026-05-04 13:42 42.45306 0.63307 37952 ft 468 kts 336°
2026-05-04 13:43 42.51536 0.60659 37933 ft 470 kts 336°
2026-05-04 13:43 42.57763 0.58006 37938 ft 469 kts 336°
2026-05-04 13:44 42.64030 0.55332 37936 ft 476 kts 336°
2026-05-04 13:44 42.70369 0.52622 37905 ft 478 kts 336°
2026-05-04 13:45 42.76705 0.49904 37994 ft 479 kts 336°
2026-05-04 13:45 42.80081 0.48455 37919 ft 477 kts 336°
2026-05-04 13:46 42.86408 0.45731 37953 ft 478 kts 336°
2026-05-04 13:46 42.92750 0.42996 37966 ft 479 kts 336°
2026-05-04 13:47 42.95924 0.41626 37858 ft 478 kts 336°
2026-05-04 13:47 42.99087 0.40257 37997 ft 477 kts 336°
2026-05-04 13:47 43.05439 0.37508 37942 ft 479 kts 337°
2026-05-04 13:48 43.11789 0.34753 37958 ft 479 kts 337°
2026-05-04 13:48 43.18133 0.31994 37988 ft 478 kts 337°
2026-05-04 13:49 43.24479 0.29231 37949 ft 477 kts 337°
2026-05-04 13:49 43.30783 0.26474 37939 ft 475 kts 337°
2026-05-04 13:50 43.37103 0.23707 37953 ft 477 kts 337°
2026-05-04 13:50 43.43400 0.20944 37971 ft 476 kts 337°
2026-05-04 13:51 43.49690 0.18177 37957 ft 474 kts 337°
2026-05-04 13:51 43.55970 0.15409 37956 ft 474 kts 337°
2026-05-04 13:52 43.65396 0.11244 37974 ft 475 kts 337°
2026-05-04 13:53 43.71697 0.08452 37947 ft 476 kts 337°
2026-05-04 13:53 43.77962 0.05669 37945 ft 476 kts 337°
2026-05-04 13:54 43.87428 0.01454 37950 ft 478 kts 338°
2026-05-04 13:55 43.96934 -0.02793 37951 ft 478 kts 338°
2026-05-04 13:55 44.06435 -0.07052 37946 ft 479 kts 338°
2026-05-04 13:56 44.12199 -0.09644 37939 ft 479 kts 338°
2026-05-04 13:57 44.21693 -0.13923 37933 ft 479 kts 338°
2026-05-04 13:58 44.34358 -0.19655 37932 ft 478 kts 338°
2026-05-04 13:58 44.43836 -0.23961 37934 ft 478 kts 338°
2026-05-04 13:59 44.50168 -0.26847 37926 ft 478 kts 338°
2026-05-04 14:00 44.59664 -0.31186 37920 ft 479 kts 338°
2026-05-04 14:00 44.69284 -0.35022 37926 ft 480 kts 341°
2026-05-04 14:01 44.75726 -0.37507 37931 ft 480 kts 341°
2026-05-04 14:02 44.85367 -0.41250 37925 ft 480 kts 341°
2026-05-04 14:02 44.91808 -0.43758 37926 ft 480 kts 341°
2026-05-04 14:03 44.98244 -0.46270 37930 ft 480 kts 341°
2026-05-04 14:03 45.04679 -0.48787 37920 ft 480 kts 341°
2026-05-04 14:04 45.14277 -0.52553 37921 ft 480 kts 341°
2026-05-04 14:04 45.20705 -0.55082 37933 ft 480 kts 341°
2026-05-04 14:05 45.30356 -0.58891 37926 ft 480 kts 341°
2026-05-04 14:06 45.36769 -0.61429 37924 ft 480 kts 341°
2026-05-04 14:06 45.43199 -0.63980 37932 ft 480 kts 341°
2026-05-04 14:07 45.49637 -0.66540 37934 ft 480 kts 341°
2026-05-04 14:07 45.56065 -0.69103 37934 ft 480 kts 341°
2026-05-04 14:08 45.62491 -0.71671 37946 ft 482 kts 341°
2026-05-04 14:08 45.68951 -0.74257 37947 ft 482 kts 341°
2026-05-04 14:09 45.77541 -0.77708 37960 ft 482 kts 341°
2026-05-04 14:10 45.80983 -0.79093 37937 ft 482 kts 341°
2026-05-04 14:10 45.86692 -0.81396 37949 ft 482 kts 341°
2026-05-04 14:11 45.93157 -0.84008 37964 ft 482 kts 341°
2026-05-04 14:11 46.02825 -0.87927 37945 ft 480 kts 341°
2026-05-04 14:12 46.09245 -0.90538 37942 ft 480 kts 341°
2026-05-04 14:13 46.18892 -0.94472 37966 ft 480 kts 342°
2026-05-04 14:13 46.25304 -0.97096 37963 ft 478 kts 342°
2026-05-04 14:14 46.31701 -0.99718 37961 ft 479 kts 342°
2026-05-04 14:14 46.41311 -1.03671 37958 ft 479 kts 342°
2026-05-04 14:15 46.54069 -1.08942 37958 ft 479 kts 342°
2026-05-04 14:16 46.63679 -1.12928 37962 ft 479 kts 342°
2026-05-04 14:17 46.73287 -1.16929 37964 ft 479 kts 342°
2026-05-04 14:18 46.82895 -1.20945 37962 ft 479 kts 342°
2026-05-04 14:19 46.95706 -1.26322 37965 ft 479 kts 342°
2026-05-04 14:19 47.02098 -1.29016 37961 ft 479 kts 342°
2026-05-04 14:20 47.08502 -1.31720 37948 ft 479 kts 342°
2026-05-04 14:20 47.14900 -1.34430 37961 ft 479 kts 342°
2026-05-04 14:21 47.24509 -1.38511 37959 ft 479 kts 342°
2026-05-04 14:21 47.30899 -1.41234 37957 ft 479 kts 342°
2026-05-04 14:22 47.37300 -1.43969 37964 ft 479 kts 342°
2026-05-04 14:22 47.43704 -1.46711 37946 ft 479 kts 342°
2026-05-04 14:23 47.53268 -1.50820 37954 ft 479 kts 342°
2026-05-04 14:24 47.59671 -1.53579 37949 ft 478 kts 342°
2026-05-04 14:24 47.66052 -1.56335 37939 ft 478 kts 342°
2026-05-04 14:25 47.72436 -1.59101 37949 ft 478 kts 342°
2026-05-04 14:25 47.81998 -1.63258 37957 ft 478 kts 342°
2026-05-04 14:26 47.88394 -1.65761 37945 ft 478 kts 352°
2026-05-04 14:26 47.95057 -1.66182 37962 ft 479 kts 356°
2026-05-04 14:27 48.01702 -1.66769 37970 ft 480 kts 355°
2026-05-04 14:27 48.08366 -1.67386 37965 ft 480 kts 355°
2026-05-04 14:28 48.14983 -1.68001 37965 ft 480 kts 355°
2026-05-04 14:28 48.21642 -1.68623 37961 ft 480 kts 355°
2026-05-04 14:29 48.34859 -1.69860 36539 ft 475 kts 355°
2026-05-04 14:30 48.38160 -1.70171 35802 ft 476 kts 355°
2026-05-04 14:30 48.41468 -1.70482 35167 ft 475 kts 355°
2026-05-04 14:30 48.47959 -1.71094 34490 ft 460 kts 355°
2026-05-04 14:31 48.51176 -1.71397 34193 ft 453 kts 355°
2026-05-04 14:31 48.57297 -1.71976 33749 ft 433 kts 355°
2026-05-04 14:32 48.63292 -1.72545 33472 ft 439 kts 355°
2026-05-04 14:32 48.66375 -1.72838 33342 ft 448 kts 355°
2026-05-04 14:32 48.69498 -1.73135 33198 ft 450 kts 355°
2026-05-04 14:32 48.72626 -1.73433 33055 ft 450 kts 355°
2026-05-04 14:33 48.75738 -1.73730 32917 ft 449 kts 355°
2026-05-04 14:33 48.78851 -1.74028 32767 ft 449 kts 355°
2026-05-04 14:33 48.81968 -1.74326 32491 ft 448 kts 355°
2026-05-04 14:33 48.85069 -1.74624 31949 ft 445 kts 355°
2026-05-04 14:34 48.88173 -1.74885 31146 ft 449 kts 356°
2026-05-04 14:34 48.91294 -1.75142 30267 ft 449 kts 356°
2026-05-04 14:34 48.94406 -1.75404 29675 ft 446 kts 356°
2026-05-04 14:34 48.97491 -1.75665 29280 ft 441 kts 356°
2026-05-04 14:35 49.00526 -1.75921 28807 ft 437 kts 356°
2026-05-04 14:35 49.03551 -1.76176 28331 ft 433 kts 356°
2026-05-04 14:35 49.06546 -1.76430 27881 ft 430 kts 356°
2026-05-04 14:35 49.09517 -1.76683 27427 ft 426 kts 356°
2026-05-04 14:36 49.12466 -1.76932 26989 ft 423 kts 356°
2026-05-04 14:36 49.15393 -1.77181 26549 ft 420 kts 356°
2026-05-04 14:36 49.18300 -1.77429 26115 ft 417 kts 356°
2026-05-04 14:36 49.21188 -1.77675 25681 ft 414 kts 356°
2026-05-04 14:37 49.24045 -1.77918 25260 ft 412 kts 356°
2026-05-04 14:37 49.26900 -1.78162 24841 ft 409 kts 356°
2026-05-04 14:37 49.29736 -1.78405 24423 ft 407 kts 355°
2026-05-04 14:37 49.32522 -1.78644 24016 ft 405 kts 355°
2026-05-04 14:38 49.35367 -1.78887 23596 ft 403 kts 355°
2026-05-04 14:38 49.38165 -1.79127 23135 ft 402 kts 355°
2026-05-04 14:38 49.40905 -1.79362 22694 ft 399 kts 355°
2026-05-04 14:38 49.43702 -1.79602 22296 ft 395 kts 355°
2026-05-04 14:39 49.46427 -1.79837 21910 ft 391 kts 356°
2026-05-04 14:39 49.49129 -1.80070 21510 ft 389 kts 356°
2026-05-04 14:39 49.51824 -1.80302 21110 ft 387 kts 355°
2026-05-04 14:40 49.57164 -1.80764 20333 ft 382 kts 356°
2026-05-04 14:40 49.59810 -1.80993 19954 ft 379 kts 356°
2026-05-04 14:40 49.62436 -1.81220 19571 ft 376 kts 356°
2026-05-04 14:40 49.65003 -1.81444 19198 ft 374 kts 356°
2026-05-04 14:41 49.67590 -1.81668 18822 ft 371 kts 356°
2026-05-04 14:41 49.70166 -1.81892 18447 ft 369 kts 356°
2026-05-04 14:41 49.75229 -1.82333 17647 ft 364 kts 357°
2026-05-04 14:42 49.80241 -1.82770 16900 ft 357 kts 357°
2026-05-04 14:42 49.82706 -1.82985 16536 ft 353 kts 357°
2026-05-04 14:42 49.85147 -1.83199 16175 ft 350 kts 357°
2026-05-04 14:43 49.87567 -1.83411 15814 ft 347 kts 357°
2026-05-04 14:43 49.89969 -1.83622 15460 ft 344 kts 357°
2026-05-04 14:43 49.92345 -1.83830 15109 ft 341 kts 357°
2026-05-04 14:43 49.94708 -1.84038 14760 ft 339 kts 357°
2026-05-04 14:44 49.97053 -1.84245 14403 ft 336 kts 356°
2026-05-04 14:44 49.99372 -1.84448 14060 ft 334 kts 357°
2026-05-04 14:44 50.01685 -1.84290 13660 ft 332 kts
2026-05-04 14:44 50.03977 -1.83934 13287 ft 330 kts
2026-05-04 14:45 50.06254 -1.83616 12936 ft 327 kts
2026-05-04 14:45 50.08508 -1.83318 12598 ft 324 kts
2026-05-04 14:45 50.10740 -1.83035 12261 ft 320 kts
2026-05-04 14:45 50.12956 -1.82762 11917 ft 318 kts
2026-05-04 14:46 50.15117 -1.82193 11551 ft 315 kts 17°
2026-05-04 14:46 50.17206 -1.81213 11236 ft 312 kts 17°
2026-05-04 14:46 50.19280 -1.80254 10915 ft 309 kts 17°
2026-05-04 14:46 50.21335 -1.79317 10596 ft 306 kts 17°
2026-05-04 14:47 50.23363 -1.78398 10308 ft 303 kts 17°
2026-05-04 14:47 50.25360 -1.77496 10166 ft 294 kts 17°
2026-05-04 14:47 50.27292 -1.76624 10027 ft 286 kts 17°
2026-05-04 14:47 50.29190 -1.75767 9751 ft 282 kts 17°
2026-05-04 14:48 50.31076 -1.74915 9413 ft 281 kts 17°
2026-05-04 14:48 50.32949 -1.74069 9095 ft 279 kts 17°
2026-05-04 14:48 50.34809 -1.73227 8789 ft 277 kts 17°
2026-05-04 14:48 50.36655 -1.72392 8493 ft 275 kts 17°
2026-05-04 14:49 50.38485 -1.71563 8201 ft 273 kts 17°
2026-05-04 14:49 50.40302 -1.70740 7903 ft 271 kts 17°
2026-05-04 14:49 50.42105 -1.69922 7613 ft 269 kts 16°
2026-05-04 14:49 50.43884 -1.69117 7430 ft 262 kts 17°
2026-05-04 14:50 50.45607 -1.68335 7307 ft 254 kts 17°
2026-05-04 14:50 50.47272 -1.67578 7178 ft 246 kts 17°
2026-05-04 14:50 50.48891 -1.66842 7069 ft 239 kts 17°
2026-05-04 14:50 50.50462 -1.66012 7009 ft 237 kts 24°
2026-05-04 14:51 50.51963 -1.64934 7017 ft 238 kts 26°
2026-05-04 14:51 50.53473 -1.63862 7008 ft 238 kts 25°
2026-05-04 14:51 50.54986 -1.62801 7005 ft 238 kts 25°
2026-05-04 14:51 50.56478 -1.61765 7001 ft 238 kts 25°
2026-05-04 14:52 50.58015 -1.60703 7000 ft 238 kts 25°
2026-05-04 14:52 50.59536 -1.59779 7001 ft 238 kts 17°
2026-05-04 14:52 50.61132 -1.59095 7001 ft 238 kts 16°
2026-05-04 14:52 50.62739 -1.58439 6994 ft 239 kts 15°
2026-05-04 14:53 50.64347 -1.57778 6991 ft 238 kts 15°
2026-05-04 14:53 50.65934 -1.57110 6963 ft 235 kts 15°
2026-05-04 14:53 50.67535 -1.56444 6518 ft 243 kts 15°
2026-05-04 14:53 50.69218 -1.55744 5851 ft 257 kts 15°
2026-05-04 14:54 50.70958 -1.55012 5232 ft 260 kts 16°
2026-05-04 14:54 50.72698 -1.54281 4769 ft 257 kts 16°
2026-05-04 14:54 50.74383 -1.53477 4405 ft 249 kts 18°
2026-05-04 14:54 50.75997 -1.52658 4102 ft 240 kts 19°
2026-05-04 14:55 50.77558 -1.51883 3844 ft 229 kts 14°
2026-05-04 14:55 50.78586 -1.51773 3704 ft 222 kts 351°
2026-05-04 14:55 50.79954 -1.52754 3526 ft 215 kts 323°
2026-05-04 14:55 50.80940 -1.54491 3307 ft 213 kts 302°
2026-05-04 14:56 50.81443 -1.56675 3095 ft 212 kts 279°
2026-05-04 14:56 50.81411 -1.58997 2828 ft 212 kts 264°
2026-05-04 14:56 50.81268 -1.61329 2526 ft 214 kts 266°
2026-05-04 14:56 50.81209 -1.63668 2296 ft 211 kts 265°
2026-05-04 14:57 50.81006 -1.65925 2120 ft 205 kts 258°
2026-05-04 14:57 50.80695 -1.68086 1914 ft 198 kts 255°
2026-05-04 14:57 50.80354 -1.70167 1665 ft 193 kts 254°
2026-05-04 14:57 50.80022 -1.72146 1422 ft 176 kts 253°
2026-05-04 14:58 50.79732 -1.73906 1204 ft 156 kts 252°
2026-05-04 14:58 50.79464 -1.75495 1008 ft 148 kts 253°
2026-05-04 14:58 50.79205 -1.77059 794 ft 147 kts 252°
2026-05-04 14:58 50.78946 -1.78612 621 ft 146 kts 252°
2026-05-04 14:59 50.78677 -1.80163 385 ft 146 kts 252°
2026-05-04 14:59 50.78414 -1.81710 191 ft 145 kts 252°
2026-05-04 14:59 50.77992 -1.84337 46 ft 69 kts 255°
2026-05-04 15:00 50.77904 -1.84836 50 ft 43 kts 254°
2026-05-04 15:00 50.77859 -1.85075 50 ft 5 kts 241°
2026-05-04 15:00 50.77838 -1.85092 49 ft 2 kts 167°
2026-05-04 15:01 50.77817 -1.85034 48 ft 12 kts 117°
2026-05-04 15:01 50.77769 -1.84884 49 ft 17 kts 117°
2026-05-04 15:01 50.77720 -1.84693 49 ft 19 kts 102°
2026-05-04 15:01 50.77697 -1.84492 49 ft 20 kts 103°
2026-05-04 15:02 50.77659 -1.84302 48 ft 16 kts 110°
2026-05-04 15:02 50.77624 -1.84122 46 ft 18 kts 105°
2026-05-04 15:02 50.77597 -1.83947 48 ft 11 kts 102°
2026-05-04 15:02 50.77580 -1.83815 45 ft 14 kts 97°
2026-05-04 15:03 50.77574 -1.83650 47 ft 17 kts 89°
2026-05-04 15:03 50.77625 -1.83492 47 ft 19 kts 23°
2026-05-04 15:03 50.77731 -1.83458 47 ft 5 kts 28°
2026-05-04 15:03 50.77741 -1.83435 46 ft 1 kts 82°
2026-05-04 15:04 50.77744 -1.83370 46 ft 0 kts 86°